Weather History for Bay City, TX

Change the Weather History Date:

Sunday, October 21, 2012

  Actual Average (KLBX) Record (KLBX)
Temperature  
Mean Temperature 80 °F -  
Max Temperature 88 °F 77 °F 89 °F (2004)
Min Temperature 73 °F 60 °F 39 °F (1999)
Cooling Degree Days 16    
Growing Degree Days 30 (Base 50)    
Moisture  
Dew Point 74 °F    
Average Humidity 84    
Maximum Humidity 100    
Minimum Humidity 56    
Precipitation  
Precipitation 0.00 in - - ()
Sea Level Pressure  
Sea Level Pressure 29.94 in    
Wind  
Wind Speed 8 mph (SE)    
Max Wind Speed 16 mph    
Max Gust Speed 23 mph    
Visibility 10 miles    
Events      
Averages and records for this station are not official NWS values.
T = Trace of Precipitation, MM = Missing Value Source: NWS Daily Summary

Daily Weather History Graph

Daily Weather History Graph

Search for Another Location

Airport:

Trip Planner

Search our weather history database for the weather conditions in past years. The results will help you decide how hot, cold, wet, or windy it might be!

Date:

Astronomy

Oct. 21, 2012 Rise Set
Actual Time 7:28 AM CDT 6:46 PM CDT
Civil Twilight 7:04 AM CDT 7:10 PM CDT
Nautical Twilight 6:36 AM CDT 7:38 PM CDT
Astronomical Twilight 6:09 AM CDT 8:06 PM CDT
Moon 1:41 PM CDT (10/21) No Moon Set
Length of Visible Light 12h 06m
Length of Day
11h 18m
Waxing Crescent, 45% of the Moon is Illuminated
Oct 21
Waxing Crescent
Oct 21
First Quarter
Oct 29
Full
Nov 6
Last Quarter
Nov 13
New

Hourly Weather History & Observations

Time (CDT) Temp. Heat Index Dew Point Humidity Pressure Visibility Wind Dir Wind Speed Gust Speed Precip Events Conditions
12:15 AM 74.8 °F - 74.8 °F 100% 29.90 in 10.0 mi SSE 5.8 mph - N/A   Clear
12:35 AM 74.7 °F - 74.7 °F 100% 29.89 in 10.0 mi SSE 4.6 mph - N/A   Clear
12:55 AM 74.5 °F - 74.5 °F 100% 29.90 in 10.0 mi SSE 5.8 mph - N/A   Clear
1:15 AM 74.3 °F - 74.3 °F 100% 29.90 in 10.0 mi SSE 5.8 mph - N/A   Clear
1:35 AM 74.3 °F - 74.3 °F 100% 29.90 in 10.0 mi SSE 4.6 mph - N/A   Scattered Clouds
1:55 AM 74.5 °F - 74.5 °F 100% 29.89 in 10.0 mi SSE 4.6 mph - N/A   Mostly Cloudy
2:15 AM 74.5 °F - 74.5 °F 100% 29.89 in 10.0 mi SSE 4.6 mph - N/A   Mostly Cloudy
2:35 AM 74.3 °F - 74.3 °F 100% 29.90 in 10.0 mi SSE 4.6 mph - N/A   Mostly Cloudy
2:55 AM 74.5 °F - 74.5 °F 100% 29.90 in 10.0 mi SSE 4.6 mph - N/A   Mostly Cloudy
3:15 AM 74.8 °F - 74.8 °F 100% 29.89 in 10.0 mi SSE 4.6 mph - N/A   Mostly Cloudy
3:35 AM 75.6 °F - 75.6 °F 100% 29.89 in 10.0 mi SSE 5.8 mph - N/A   Mostly Cloudy
3:55 AM 76.1 °F - 76.1 °F 100% 29.89 in 10.0 mi SSE 5.8 mph - N/A   Mostly Cloudy
4:15 AM 75.9 °F - 75.9 °F 100% 29.90 in 10.0 mi SSE 5.8 mph - N/A   Scattered Clouds
4:35 AM 75.6 °F - 75.6 °F 100% 29.90 in 10.0 mi SSE 5.8 mph - N/A   Scattered Clouds
4:55 AM 75.4 °F - 75.4 °F 100% 29.90 in 10.0 mi SE 5.8 mph - N/A   Clear
5:15 AM 75.0 °F - 75.0 °F 100% 29.90 in 10.0 mi SE 5.8 mph - N/A   Clear
5:35 AM 75.0 °F - 75.0 °F 100% 29.91 in 10.0 mi SE 6.9 mph - N/A   Clear
5:55 AM 75.2 °F - 75.2 °F 100% 29.91 in 10.0 mi SE 5.8 mph - N/A   Clear
6:15 AM 75.2 °F - 75.2 °F 100% 29.92 in 10.0 mi SE 5.8 mph - N/A   Clear
6:35 AM 75.2 °F - 75.2 °F 100% 29.92 in 10.0 mi SE 5.8 mph - N/A   Mostly Cloudy
6:55 AM 75.4 °F - 75.4 °F 100% 29.92 in 10.0 mi SE 6.9 mph - N/A   Scattered Clouds
7:15 AM 75.4 °F - 75.4 °F 100% 29.93 in 10.0 mi SE 6.9 mph - N/A   Clear
7:35 AM 75.6 °F - 75.6 °F 100% 29.93 in 10.0 mi SE 6.9 mph - N/A   Clear
7:55 AM 76.1 °F - 76.1 °F 100% 29.94 in 10.0 mi SE 8.1 mph - N/A   Clear
8:15 AM 76.6 °F - 76.6 °F 100% 29.94 in 10.0 mi SE 8.1 mph - N/A   Clear
8:35 AM 77.5 °F - 77.5 °F 100% 29.95 in 10.0 mi SE 6.9 mph - N/A   Clear
8:55 AM 79.2 °F - 79.0 °F 99% 29.96 in 10.0 mi SE 6.9 mph - N/A   Clear
9:15 AM 80.2 °F 87.7 °F 79.5 °F 98% 29.97 in 10.0 mi SE 8.1 mph - N/A   Clear
9:35 AM 82.4 °F 88.2 °F 73.4 °F 74% 29.97 in 10.0 mi SSE 12.7 mph 17.3 mph N/A   Clear
9:55 AM 83.7 °F 91.0 °F 74.5 °F 74% 29.97 in 10.0 mi SSE 12.7 mph 20.7 mph N/A   Scattered Clouds
10:15 AM 84.4 °F 91.3 °F 73.8 °F 70% 29.98 in 10.0 mi SSE 16.1 mph - N/A   Mostly Cloudy
10:35 AM 84.2 °F 89.6 °F 71.6 °F 66% 29.98 in 10.0 mi SSE 16.1 mph 19.6 mph N/A   Mostly Cloudy
10:55 AM 85.5 °F 92.6 °F 73.2 °F 67% 29.98 in 10.0 mi SSE 15.0 mph 18.4 mph N/A   Scattered Clouds
11:15 AM 86.9 °F 94.5 °F 73.4 °F 64% 29.98 in 10.0 mi SSE 15.0 mph 19.6 mph N/A   Mostly Cloudy
11:35 AM 87.8 °F 95.6 °F 73.4 °F 62% 29.98 in 10.0 mi SE 12.7 mph 19.6 mph N/A   Scattered Clouds
11:55 AM 87.8 °F 93.8 °F 71.6 °F 58% 29.98 in 10.0 mi SSE 13.8 mph 19.6 mph N/A   Scattered Clouds
12:15 PM 87.8 °F 95.6 °F 73.2 °F 62% 29.98 in 10.0 mi SE 13.8 mph 21.9 mph N/A   Mostly Cloudy
12:35 PM 88.2 °F 96.0 °F 73.2 °F 61% 29.97 in 10.0 mi SSE 15.0 mph 19.6 mph N/A   Mostly Cloudy
12:55 PM 88.0 °F 96.0 °F 73.4 °F 62% 29.97 in 10.0 mi SSE 13.8 mph 18.4 mph N/A   Scattered Clouds
1:15 PM 87.1 °F 94.5 °F 73.0 °F 63% 29.96 in 10.0 mi SSE 13.8 mph 20.7 mph N/A   Scattered Clouds
1:35 PM 88.0 °F 95.6 °F 73.2 °F 61% 29.96 in 10.0 mi SSE 13.8 mph 19.6 mph N/A   Mostly Cloudy
1:55 PM 88.7 °F 96.7 °F 73.0 °F 60% 29.95 in 10.0 mi SSE 13.8 mph 20.7 mph N/A   Mostly Cloudy
2:15 PM 88.3 °F 95.4 °F 72.3 °F 59% 29.94 in 10.0 mi South 13.8 mph 20.7 mph N/A   Scattered Clouds
2:35 PM 87.6 °F 94.3 °F 72.1 °F 60% 29.93 in 10.0 mi SSE 13.8 mph 18.4 mph N/A   Scattered Clouds
2:55 PM 87.8 °F 94.7 °F 72.1 °F 60% 29.93 in 10.0 mi SSE 13.8 mph 23.0 mph N/A   Mostly Cloudy
3:15 PM 86.0 °F 91.8 °F 71.6 °F 62% 29.93 in 10.0 mi SSE 11.5 mph - N/A   Mostly Cloudy
3:35 PM 87.6 °F 93.9 °F 71.6 °F 59% 29.93 in 10.0 mi SE 10.4 mph 20.7 mph N/A   Mostly Cloudy
3:55 PM 88.2 °F 93.7 °F 70.7 °F 56% 29.93 in 10.0 mi SSE 16.1 mph - N/A   Scattered Clouds
4:15 PM 87.1 °F 92.0 °F 70.0 °F 57% 29.93 in 10.0 mi South 13.8 mph 17.3 mph N/A   Clear
4:35 PM 86.5 °F 91.0 °F 69.8 °F 57% 29.93 in 10.0 mi SSE 13.8 mph 19.6 mph N/A   Scattered Clouds
4:55 PM 86.0 °F 90.4 °F 69.8 °F 58% 29.93 in 10.0 mi SSE 11.5 mph - N/A   Mostly Cloudy
5:15 PM 84.2 °F 88.4 °F 69.8 °F 62% 29.93 in 10.0 mi SE 16.1 mph 21.9 mph N/A   Mostly Cloudy
5:35 PM 84.6 °F 89.4 °F 70.9 °F 63% 29.93 in 10.0 mi SE 10.4 mph - N/A   Scattered Clouds
5:55 PM 83.5 °F 88.2 °F 71.1 °F 66% 29.93 in 10.0 mi SE 12.7 mph - N/A   Clear
6:15 PM 82.4 °F 86.7 °F 71.1 °F 68% 29.93 in 10.0 mi SE 11.5 mph 17.3 mph N/A   Clear
6:35 PM 81.1 °F 85.0 °F 70.9 °F 71% 29.93 in 10.0 mi SE 11.5 mph 16.1 mph N/A   Clear
6:55 PM 79.5 °F - 70.9 °F 75% 29.93 in 10.0 mi SE 8.1 mph - N/A   Clear
7:15 PM 78.3 °F - 70.9 °F 78% 29.94 in 10.0 mi ESE 8.1 mph - N/A   Clear
7:35 PM 77.5 °F - 71.4 °F 81% 29.94 in 10.0 mi ESE 6.9 mph - N/A   Clear
7:55 PM 76.6 °F - 71.8 °F 85% 29.95 in 10.0 mi ESE 5.8 mph - N/A   Clear
8:15 PM 75.7 °F - 73.4 °F 92% 29.95 in 10.0 mi ESE 5.8 mph - N/A   Clear
8:35 PM 75.2 °F - 75.2 °F 100% 29.95 in 10.0 mi ESE 5.8 mph - N/A   Clear
8:55 PM 74.8 °F - 74.8 °F 100% 29.95 in 10.0 mi ESE 5.8 mph - N/A   Clear
9:15 PM 73.4 °F - 73.4 °F 100% 29.95 in 10.0 mi ESE 5.8 mph - N/A   Clear
9:35 PM 75.0 °F - 75.0 °F 100% 29.96 in 10.0 mi ESE 6.9 mph - N/A   Clear
9:55 PM 75.4 °F - 75.4 °F 100% 29.96 in 10.0 mi ESE 6.9 mph - N/A   Clear
10:15 PM 75.7 °F - 75.7 °F 100% 29.97 in 10.0 mi ESE 6.9 mph - N/A   Clear
10:35 PM 75.7 °F - 75.7 °F 100% 29.97 in 10.0 mi ESE 5.8 mph - N/A   Clear
10:55 PM 75.2 °F - 75.2 °F 100% 29.97 in 10.0 mi ESE 6.9 mph - N/A   Clear
11:15 PM 75.9 °F - 75.9 °F 100% 29.97 in 10.0 mi SE 6.9 mph - N/A   Scattered Clouds
11:35 PM 76.1 °F - 76.1 °F 100% 29.96 in 10.0 mi ESE 5.8 mph - N/A   Scattered Clouds
11:55 PM 76.1 °F - 76.1 °F 100% 29.96 in 10.0 mi SE 8.1 mph - N/A   Clear